NOAA 16 DEB

Satellite information

Favourite Embed

Satellite Type and Status

DEBRISIN ORBIT

Key statistics

Satellite NOAA 16 DEB at a glance.

Uptime

9216

Days in orbit

Revolutions

≈ 14.4

Per day

Orbit

SSO

Sun Synchronous Orbit

Inclination

99.0

Latest

Satellite identification and parameters

Extended collection of information and parameters for NOAA 16 DEB.

Object identification

Identified? True

Debris? True

Object name: NOAA 16 DEB

International designator: 2000-055FB

Object number (NORAD): 41251

Object ID (CCSDS): 41251

Country: UNITED STATES OF AMERICA (US)

Current information (Y/N): Y

RCS size: SMALL

Orbital parameters

Period: 100.082 minutes

Inclination: 98.9657 deg

SMA: 7140.556 km

Apoapsis: 791.892 km

Periapsis: 732.95 km

RAAN: 115.1428 deg

Eccentricy: 0.0041273

Argument of periapsis: 313.1871 deg

Mean anomaly: 46.5869 deg

Mean motion: 14.38814193 rev/day

Mean motion (dot): 0.00012083 rev/day2

B* drag term: 0.0038998817 1/REarth

Two-line elements (TLE)

Creation date: Dec. 14, 2025, 6:24 p.m.

Reference frame: TEME

Reference center: EARTH

Epoch: Dec. 14, 2025, 7:29 a.m. UTC

TLE line 0: 0 NOAA 16 DEB

TLE line 1: 1 41251U 00055FB 25348.31212212 .00012083 00000-0 38999-2 0 9993

TLE line 2: 2 41251 98.9657 115.1428 0041273 313.1871 46.5869 14.38814193515294

Live tracking on map

Real-time ground track for satellite NOAA 16 DEB.

In-orbit conjunctions

A list of the most updated potential collisions computed for object NOAA 16 DEB.

Target Orbit TCA Probability of collision Miss distance Type
CZ-6A DEB LEO 2025-01-18 14:14:47 0.0001341245 419.0 (m) DEBRIS
CZ-6A DEB SSO 2024-06-07 17:23:52 0.0002606187 180.0 (m) DEBRIS

Associated space launch

The NOAA K, L and M POES satellites begin the fifth generation of improved environmental monitoring in support of NOAA missions. The instrument payload has significant improvements and additions/deletions. The instrument changes have effected the spacecraft subsystems and data formats.

NOAA 16 DEB was lifted into orbit during the mission ‘Titan II SLV | NOAA 16’, on board a Titan II SLV space rocket.

The launch took place on Sept. 21, 2000, 10:22 a.m. from Space Launch Complex 4W.

For more information about the launch, click the button.

Launch to space Titan II SLV | NOAA 16
Titan II SLV | NOAA 16

Agency: N/A

Status: Launch Successful

Launch date: Sept. 21, 2000, 10:22 a.m. UTC

Rocket: Titan II SLV

Launch pad: Space Launch Complex 4W

Location: Vandenberg SFB, CA, USA

...

Latest news about this satellite

There are no fresh news available about this satellite. Check back as we update our databases every day.


Newsletter sign-up

Weekly statistics, charts and insights to help you stay on top of the space industry.